Weather in Manturovo

Russia / Kostroma Oblast     58°19′43″N   44°45′26″E
temp.,
°C
wind,
m/s
gust,
m/s
humid.,
%
clouds,
%
prec.,
mm/h
press.,
hPa
HPBL,
m
17 april, sat
sat1700:00+2ene28895 0.0 1030157
03:000ene27884 0.0 1031127
06:00+1ene28831 0.0 1031193
09:00+7ene47570 0.0 1031612
12:00+10ene35471 0.0 10301177
15:00+11ne34455 0.0 10291351
18:00+9ne25615 0.0 1028123
21:00+4ne22752 0.0 102818
18 april, sun
sun1800:00+3ne26863 0.0 1028111
03:00+2ne27905 0.0 1028123
06:00+2ne278520 0.0 1028173
09:00+8ne356375 0.0 1028615
12:00+10ne4655100 0.0 10281373
15:00+8ene5765100 0.0 10291089
18:00+6ene4772100 0.0 1030956
21:00+4ene41167100 0.0 1031606
19 april, mon
mon1900:00+2ene41264100 0.0 1032503
03:00−1ene311742 0.0 1033359
06:000ene411690 0.0 1033514
09:00+5e58450 0.0 10331095
12:00+7e57365 0.0 10331758
15:00+8e57323 0.0 10321851
18:00+7e47410 0.0 1032964
21:00+2e310630 0.0 1033266
20 april, tue
tue2000:000e311650 0.0 1033292
03:00−1e311670 0.0 1033287
06:000e412561 0.0 1033477
09:00+6ese59365 0.0 1032980
12:00+9ese58343 0.0 10301491
15:00+10ese58340 0.0 10291666
18:00+8ese511415 0.0 10261244
21:00+5ese5144999 0.0 1026745
21 april, wed
wed2100:00+4ese51551100 0.0 1024743
03:00+3ese61655100 0.0 1022716
06:00+3ese71756100 0.0 1019820
09:00+3se71870100 0.5 1018884
12:00+3se71791100 1.2 1017784
15:00+4se71685100 1.4 1017796
18:00+4se61588100 0.0 1017811
21:00+5sse61591100 0.3 1017898